Flag for Spain Weather past 2 weeks in Pamplona, Spain

Now
73 °F

Clear.


Feels Like: 76 °F
Forecast: 61 / 85 °F
Wind: 1 mph from North

Location: Pamplona / Noain

Current Time: Aug 28, 2014 at 1:40:55 AM

Latest Report: Aug 28, 2014 at 12:00 AM


Visibility: 10 mi

Pressure: 30.04 "Hg

Humidity: 65%

Dew point: 61 °F

Location of PamplonaLocation

Historic Weather in Pamplona — Graph

°F

Pamplona temperature yesterday

Maximum temperature yesterday: 90 °F (at 6:00 PM)
Minimum temperature yesterday: 64 °F (at 7:00 AM)
Average temperature yesterday: 77 °F

Past Weeks' High & Low Weather Summary

 TemperatureHumidityPressure
High91 °F (Aug 25, 4:30 PM)100% (Aug 13, 6:30 PM)30.30 "Hg (Aug 13, 6:30 PM)
Low46 °F (Aug 23, 5:30 AM)15% (Aug 27, 4:00 PM)29.86 "Hg (Aug 18, 4:00 PM)
Average66 °F68%30.08 "Hg
* Reported Midnight between Aug 12 and Aug 13 — Midnight between Aug 27 and Aug 28, Pamplona, Weather by CustomWeather, © 2014

Note: Actual official high and low records may vary slightly from our data, if they occured in-between our weather recording intervals... More about our weather records

Advertising

Pamplona weather history for previous 24 hours

 ConditionsComfort  
Time TempWeatherWind HumidityBarometerVisibility
12:00 AM
Aug 28
73 °FClear.1 mph65%30.04 "Hg10 mi
11:30 PM
Aug 27
73 °FPassing clouds.3 mph69%30.04 "HgN/A
11:00 PM75 °FClear.2 mph65%30.01 "Hg10 mi
10:30 PM77 °FPassing clouds.3 mph61%30.01 "HgN/A
10:00 PM77 °FClear.1 mph61%30.01 "Hg10 mi
9:30 PM79 °FPassing clouds.1 mph58%30.01 "HgN/A
9:00 PM79 °FPassing clouds.7 mph58%29.98 "HgN/A
8:30 PM81 °FPassing clouds.8 mph54%29.98 "HgN/A
7:30 PM84 °FPassing clouds.8 mph48%29.98 "HgN/A
7:00 PM86 °FPassing clouds.10 mph46%29.98 "HgN/A
6:30 PM88 °FPassing clouds.3 mph40%30.01 "HgN/A
6:00 PM90 °FPassing clouds.2 mph38%30.01 "HgN/A
5:00 PM88 °FPassing clouds.6 mph38%30.01 "HgN/A
4:30 PM86 °FPassing clouds.1 mph40%30.01 "HgN/A
4:00 PM84 °FPassing clouds.6 mph15%30.04 "HgN/A
3:30 PM84 °FScattered clouds.5 mph45%30.04 "HgN/A
3:00 PM84 °FScattered clouds.1 mph45%30.04 "HgN/A
2:30 PM82 °FScattered clouds.5 mph48%30.04 "HgN/A
1:30 PM79 °FScattered clouds.6 mph54%30.07 "HgN/A
1:00 PM81 °FScattered clouds.6 mph54%30.07 "HgN/A
12:30 PM79 °FScattered clouds.5 mph58%30.07 "HgN/A
12:00 PM79 °FPassing clouds.2 mph58%30.07 "HgN/A
11:30 AM75 °FPassing clouds.5 mph61%30.07 "HgN/A
10:30 AM73 °FScattered clouds.2 mph69%30.07 "HgN/A
10:00 AM70 °FScattered clouds.1 mph78%30.07 "HgN/A
9:30 AM70 °FPassing clouds.No wind78%30.07 "HgN/A
9:00 AM68 °FPassing clouds.2 mph83%30.07 "HgN/A
8:30 AM66 °FPassing clouds.No wind88%30.07 "HgN/A
8:00 AM64 °FPassing clouds.No wind94%30.07 "HgN/A
7:30 AM64 °FPassing clouds.2 mph94%30.07 "HgN/A
7:00 AM64 °FPassing clouds.2 mph88%30.07 "HgN/A
6:30 AM66 °FPassing clouds.5 mph83%30.04 "HgN/A
6:00 AM66 °FPassing clouds.3 mph88%30.04 "HgN/A
5:30 AM68 °FPassing clouds.6 mph83%30.04 "HgN/A
Weather by CustomWeather, © 2014

See weather overviewHow to use our weather pages